User: anonymous   Login
Location: Newark
(43.0000°N, 1.6781°W)
Time: 12:47:48
(UTC+00:00)
Language:

SEEDS - Orbit

View from above orbital plane
View from above orbital plane
View from above satellite
View from above satellite

Ground track
Ground track

The orbit data is extracted from the following two-line orbital elements,

1 32791U 08021J   22341.67688132  .00004839  00000-0  46123-3 0  9999
2 32791  97.6334 312.6529 0012050 341.1156  18.9616 14.93763774793048
Epoch (UTC): 07 December 2022 16:14:42
Eccentricity: 0.0012050
inclination: 97.6334°
perigee height: 578 km
apogee height: 594 km
right ascension of ascending node: 312.6529°
argument of perigee: 341.1156°
revolutions per day: 14.93763774
mean anomaly at epoch: 18.9616°
orbit number at epoch: 79304

The dashed part of the orbit path shows where the satellite is in the earth's shadow,  

DLR